sat.trackr.live / text

‹ back to catalog

STARLINK-31086

NORAD 58626 · 2023-203J

PAYLOAD ACTIVE UNKNOWN

§ Identity

Operator
Country
US
Launch date
2023-12-23
Launch site
AFETR
Launch vehicle
Mass (kg)
RCS (m²)

Purposes: comms

External: N2YO · Heavens-Above · Gunter

§ Orbital elements

Epoch: 2026-05-24T23:33:22.103712Z

Period
94.27 min
Inclination
43.0045°
Eccentricity
0.0001839
Mean motion
15.27576592 rev/d
Perigee alt
481.8 km
Apogee alt
484.3 km
Semi-major
6,861.2 km
B*
2.9025e-5
RAAN
355.8627°
Arg perigee
278.1803°
Mean anomaly
81.8840°
Rev number
13,523

§ Raw data

STARLINK-310861 58626U 23203J   26144.98150583  .00000536  00000+0  29025-4 0  99982 58626  43.0045 355.8627 0001839 278.1803  81.8840 15.27576592135233

JSON: /api/v1/satellites/58626 · /tle

For live sub-satellite position, see the globe view (requires WebGL).

§ Visibility from observer

Set your observer location to see the next 7 days of passes ≥ 10°. The values pass through the URL so the page stays shareable.

No JS? Fill the form by hand. The geolocation button needs JavaScript.